This is the latest recevied weather packets stored in our database for station/object IU5JAE-13. If no packets are shown the sender has not sent any weather packets the latest 10 day(s).
| Time | Temp. | Humidity | Pressure | Rain* | Wind** | Luminosity | Snow |
|---|---|---|---|---|---|---|---|
| 1778043932 | 11.67° C | 99% | 1009.7 hPa | 3.3 mm | - | 2 W/m² | - |
| 1778043329 | 11.67° C | 99% | 1009.6 hPa | 4.32 mm | - | 6 W/m² | - |
| 1778042727 | 12.22° C | 99% | 1009.6 hPa | 3.81 mm | - | 3 W/m² | - |
| 1778042124 | 12.22° C | 99% | 1009.7 hPa | 3.3 mm | - | 3 W/m² | - |
| 1778041522 | 12.22° C | 99% | 1009.7 hPa | 2.79 mm | - | 1 W/m² | - |
| 1778040920 | 12.22° C | 99% | 1009.6 hPa | 2.79 mm | - | 1 W/m² | - |
| 1778040317 | 12.22° C | 99% | 1009.7 hPa | 2.54 mm | - | 0 W/m² | - |
| 1778039735 | 12.22° C | 99% | 1009.7 hPa | 1.52 mm | - | 0 W/m² | - |
| 1778039132 | 12.22° C | 99% | 1009.8 hPa | 1.52 mm | - | 0 W/m² | - |
| 1778038530 | 12.22° C | 99% | 1009.8 hPa | 1.78 mm | - | 0 W/m² | - |
| 1778037928 | 12.22° C | 99% | 1009.8 hPa | 2.29 mm | - | 0 W/m² | - |
| 1778037325 | 12.22° C | 99% | 1010.1 hPa | 1.78 mm | - | 0 W/m² | - |
| 1778036723 | 12.22° C | 99% | 1010 hPa | 3.3 mm | - | 0 W/m² | - |
| 1778036120 | 12.78° C | 99% | 1009.9 hPa | 4.32 mm | - | 0 W/m² | - |
| 1778035518 | 12.22° C | 99% | 1009.9 hPa | 3.81 mm | - | 0 W/m² | - |
| 1778034916 | 12.22° C | 99% | 1009.9 hPa | 3.3 mm | - | 0 W/m² | - |
| 1778034333 | 12.22° C | 99% | 1010.1 hPa | 3.05 mm | - | 0 W/m² | - |
| 1778033731 | 12.22° C | 99% | 1009.9 hPa | 2.79 mm | - | 0 W/m² | - |
| 1778033128 | 12.22° C | 99% | 1010.2 hPa | 1.52 mm | - | 0 W/m² | - |
| 1778032526 | 12.22° C | 99% | 1010.3 hPa | 0.76 mm | - | 0 W/m² | - |
| 1778031923 | 12.22° C | 99% | 1010.7 hPa | 2.29 mm | - | 0 W/m² | - |
| 1778031321 | 12.22° C | 99% | 1010.6 hPa | 4.57 mm | - | 0 W/m² | - |
| 1778030719 | 12.22° C | 99% | 1010.4 hPa | 6.1 mm | - | 0 W/m² | - |
| 1778030116 | 12.22° C | 99% | 1010.7 hPa | 6.86 mm | - | 0 W/m² | - |
| 1778029534 | 12.22° C | 99% | 1010.7 hPa | 7.87 mm | - | 0 W/m² | - |
* Rain latest hour (hover to see other rain measurements)
** Current wind speed in m/s (hover to see current wind gust speed)